ATLAS 5 CENTAUR DEB, 44674

Orbit data source: Space-Track

ATLAS 5 CENTAUR DEB, 44674 is space debris in HEO originally from a launch on Wed, 17 Oct 2018 UTC launched from the Air Force Eastern Test Range (AFETR). Debris objects in space refer to the collection of defunct objects orbiting the Earth. Examples of debris include non-operational satellites, rocket bodies, and fragments generated from explosions, collisions, or faulty payload assembly.

Loading next visibility...
Identifier
44674, 2018-079AL
Orbit
HEO
Country
Flag of USUS
Related business
Flag of USUnited Launch Alliance/Lockheed Martin (US)
Manufacturer
ULA Decatur
Mission
Spacecraft
Bus & Motor
Unknown
Mass
Unknown
Launch date (UTC)
2018-10-17 (8 years ago)
Launch vehicle
Unknown
Launch site
Air Force Eastern Test Range (AFETR)
Object type
Payload
Rocket body
Debris
Shape & HBR
Unknown shape, 1.1 m
Radar Cross Section
RCS unknown

Expand to show TLE details & history
Last TLE update: 1 day ago

TLE from 1 day ago
0 ATLAS 5 CENTAUR DEB
1 44674U 18079AL  26127.07293080 -.00000130  00000-0  00000+0 0  9991
2 44674  12.9542  39.3988 4451610 329.8509  10.7604  1.93845933 48743
Epoch: 2026-05-07T01:45Z
TLE epoch observation values (Epoch: 2026-05-07T01:45:01.221Z)
Latitude
-0.00004°
Longitude
148.17907°
Altitude
9,342.157 km
Speed
6.003 km/s
True Right ascension
02h 37m 26s
True Declination
0° 00' 00"
Sunlit
Object was in daylight at epoch
Visualization orbit readout
Latitude
Unknown
Longitude
Unknown
Altitude
Unknown
Speed
Unknown
Apparent Right ascension
Unknown
Apparent Declination
Unknown
Sunlit
N/A
Visualization observer readout
Local Sidereal Time
10:42:37
Azimuth
Unknown
Elevation
Unknown
Doppler factor
Unknown
Orbital elements
Apogee altitude
32,890.628 km
Perigee altitude
8,698.275 km
Semi-major axis
27,172.588 km
Eccentricity
0.44516
Inclination
12.9542°
RAAN
39.3988°
Arg. of periapsis
329.8509°
True anomaly
30.39853°
Mean anomaly
10.7604°
Eccentric anomaly
19.11099°
Mean motion
0.48456 °/min
Orbital period
742.94 mins
BSTAR
0
Loading maneuver chart data...
Computing Atmospheric mass density...

Documentation

Showing up to 5 results
|